Weather History for Birmingham, AL

Change the Weather History Date:

Wednesday, April 2, 2014

  Actual Average Record
Temperature  
Mean Temperature 68 °F 59 °F  
Max Temperature 79 °F 71 °F 86 °F (2012)
Min Temperature 56 °F 47 °F 28 °F (1992)
Degree Days  
Heating Degree Days 0 7  
Month to date heating degree days 0 14  
Since 1 July heating degree days 2871 2526  
Cooling Degree Days 3 1  
Month to date cooling degree days 5 2  
Year to date cooling degree days 8 24  
Growing Degree Days 18 (Base 50)    
Moisture  
Dew Point 54 °F    
Average Humidity 63    
Maximum Humidity 80    
Minimum Humidity 45    
Precipitation  
Precipitation 0.00 in 0.15 in 3.24 in (2000)
Month to date precipitation 0.00 0.31  
Year to date precipitation 11.65 14.91  
Snow  
Snow 0.00 in 0.00 in - ()
Month to date snowfall 0.0 0.0  
Since 1 July snowfall 5.0 1.4  
Snow Depth 0.00 in    
Sea Level Pressure  
Sea Level Pressure 30.09 in    
Wind  
Wind Speed 7 mph (SSW)    
Max Wind Speed 16 mph    
Max Gust Speed 22 mph    
Visibility 10 miles    
Events      
T = Trace of Precipitation, MM = Missing Value Source: NWS Daily Summary

Daily Weather History Graph

Daily Weather History Graph

Search for Another Location

Airport:

Trip Planner

Search our weather history database for the weather conditions in past years. The results will help you decide how hot, cold, wet, or windy it might be!

Date:

Astronomy

Apr. 02, 2014 Rise Set
Actual Time 6:33 AM CDT 7:08 PM CDT
Civil Twilight 6:08 AM CDT 7:33 PM CDT
Nautical Twilight 5:38 AM CDT 8:02 PM CDT
Astronomical Twilight 5:08 AM CDT 8:33 PM CDT
Moon 8:25 AM CDT (4/2) 10:21 PM CDT (4/2)
Length of Visible Light 13h 25m
Length of Day
12h 35m
Waxing Crescent, 10% of the Moon is Illuminated
Apr 2
Waxing Crescent
Apr 7
First Quarter
Apr 15
Full
Apr 22
Last Quarter
Apr 29
New

Hourly Weather History & Observations

Time (CDT) Temp. Dew Point Humidity Pressure Visibility Wind Dir Wind Speed Gust Speed Precip Events Conditions
12:53 AM 61.0 °F 46.0 °F 58% 30.08 in 10.0 mi Calm Calm - N/A   Mostly Cloudy
1:53 AM 64.0 °F 44.1 °F 48% 30.08 in 10.0 mi SSW 4.6 mph - N/A   Partly Cloudy
2:53 AM 63.0 °F 44.1 °F 50% 30.08 in 10.0 mi Calm Calm - N/A   Overcast
3:53 AM 62.1 °F 43.0 °F 50% 30.07 in 10.0 mi Calm Calm - N/A   Overcast
4:53 AM 60.1 °F 46.9 °F 62% 30.09 in 10.0 mi South 6.9 mph - N/A   Scattered Clouds
5:53 AM 57.9 °F 48.0 °F 70% 30.10 in 10.0 mi South 5.8 mph - N/A   Scattered Clouds
7:53 AM 59.0 °F 53.1 °F 81% 30.14 in 10.0 mi South 4.6 mph - N/A   Mostly Cloudy
8:53 AM 63.0 °F 55.0 °F 75% 30.14 in 10.0 mi SSW 10.4 mph - N/A   Mostly Cloudy
9:53 AM 66.9 °F 55.9 °F 68% 30.15 in 10.0 mi SSW 9.2 mph - N/A   Mostly Cloudy
10:53 AM 69.1 °F 55.9 °F 63% 30.16 in 10.0 mi SW 10.4 mph - N/A   Mostly Cloudy
11:53 AM 70.0 °F 57.9 °F 65% 30.14 in 10.0 mi WSW 11.5 mph - N/A   Mostly Cloudy
12:21 PM 69.8 °F 57.2 °F 64% 30.16 in 10.0 mi SW 9.2 mph - N/A   Mostly Cloudy
12:53 PM 70.0 °F 57.9 °F 65% 30.13 in 10.0 mi SW 8.1 mph - N/A   Mostly Cloudy
1:40 PM 71.6 °F 57.2 °F 60% 30.12 in 10.0 mi Variable 5.8 mph - N/A   Mostly Cloudy
1:53 PM 72.0 °F 57.0 °F 59% 30.09 in 10.0 mi SW 6.9 mph - N/A   Mostly Cloudy
2:53 PM 75.9 °F 57.0 °F 52% 30.08 in 10.0 mi WSW 5.8 mph - N/A   Mostly Cloudy
3:53 PM 78.1 °F 55.0 °F 45% 30.07 in 10.0 mi SW 11.5 mph - N/A   Mostly Cloudy
4:53 PM 75.2 °F 57.2 °F 53% 30.08 in 10.0 mi SSW 8.1 mph - N/A   Overcast
5:53 PM 75.0 °F 57.9 °F 55% 30.06 in 8.0 mi SSW 9.2 mph - N/A   Clear
6:53 PM 73.9 °F 59.0 °F 59% 30.06 in 8.0 mi South 6.9 mph - N/A   Mostly Cloudy
7:53 PM 72.0 °F 59.0 °F 64% 30.05 in 10.0 mi SSE 5.8 mph - N/A   Mostly Cloudy
8:53 PM 72.0 °F 59.0 °F 64% 30.05 in 10.0 mi South 3.5 mph - N/A   Mostly Cloudy
9:53 PM 73.0 °F 57.9 °F 59% 30.04 in 10.0 mi SSE 6.9 mph - N/A   Overcast
10:53 PM 72.0 °F 57.9 °F 61% 30.05 in 10.0 mi South 6.9 mph - N/A   Overcast
11:53 PM 71.1 °F 59.0 °F 66% 30.04 in 10.0 mi South 12.7 mph - N/A   Mostly Cloudy